Regional Weather Roundup
Issued by NWS Jackson, KY

Home | Current Version | Previous Version | Text Only | Print | Product List | Glossary Off
Versions: 1 2 3 4 5 6 7 8 9 10 11 12 13 14 15 16 17 18 19 20 21 22 23 24 25 26 27 28 29 30 31 32 33 34 35 36 37 38 39 40 41 42 43 44 45 46 47 48 49 50

000
ASUS43 KJKL 071710
RWRJKL

EAST KENTUCKY HOURLY WEATHER ROUNDUP
NATIONAL WEATHER SERVICE JACKSON KY
100 PM EDT TUE JUL 07 2015

NOTE: "FAIR" INDICATES FEW OR NO CLOUDS BELOW 12,000 FEET WITH
NO SIGNIFICANT WEATHER AND/OR OBSTRUCTIONS TO VISIBILITY.

* THESE REPORTS ARE NOT UNDER NWS QUALITY CONTROL AND MAY NOT
  REPORT WEATHER SUCH AS PRECIPITATION AND FOG.

KYZ079-080-083-085-087-088-110-112-115-119-120-071800
...EASTERN KENTUCKY...

CITY           SKY/WX    TMP DP  RH WIND       PRES   REMARKS
JACKSON        LGT RAIN  74  71  91 SW3       30.10R FOG
LONDON         PTSUNNY   84  67  56 SW12G18   30.10F
SOMERSET*      CLOUDY    81  70  69 SW16G22   30.09F
MONTICELLO*    PTSUNNY   85  75  71 SW14      30.11F HX  93
MIDDLESBORO*   MOSUNNY   83  71  66 S8        30.13F
HARLAN APT*      N/A     82  64  54 CALM      30.14F
HAZARD APT*    PTSUNNY   84  70  61 S12       30.10F
BLACK MTN*       N/A     70  68  94 SW1         N/A
PIKEVILLE APT* CLOUDY    81  70  69 S6        30.11F
BIG SANDY*     PTSUNNY   84  69  60 SW7G17    30.09F
MOREHEAD APT*  LGT RAIN  77  72  83 SW17G33   30.08R
$$

KYZ035-036-041-042-044-050-067-078-099-071800
...CENTRAL KENTUCKY...

CITY           SKY/WX    TMP DP  RH WIND       PRES   REMARKS
MT STERLING*   MOSUNNY   75  73  94 W7        30.06S
FLEMING/MASON* MOSUNNY   82  73  74 S10G18    30.02F
DANVILLE*      CLOUDY    79  70  73 SW10      30.07S
RICHMOND*      CLOUDY    81  70  69 SW13      30.07R
LEXINGTON      CLOUDY    78  69  73 SW14      30.04R
FRANKFORT      LGT RAIN  76  69  79 SW14      30.02R
$$

KYZ091>093-OHZ055-061-077-WVZ005-015-034-035-042-071800
...SOUTHERN OHIO/WEST VIRGINIA...

CITY           SKY/WX    TMP DP  RH WIND       PRES   REMARKS
COVINGTON      LGT RAIN  77  72  84 S18G24    29.96F
COLUMBUS       PTSUNNY   82  70  66 S14       29.96F
DAYTON         CLOUDY    81  72  74 SW15      29.95F
WILMINGTON     CLOUDY    80  70  71 S16       29.96F
HUNTINGTON     MOSUNNY   83  70  64 SW12      30.04F
CHARLESTON     PTSUNNY   84  69  60 S16G23    30.06F
PINEVILLE*     PTSUNNY   83  71  68 MISG      30.19F
BECKLEY        PTSUNNY   78  66  66 W9G16     30.19F
BLUEFIELD      PTSUNNY   81  64  56 SW9       30.22S
$$

VAZ002-007-008-TNZ017-027-036-066-071-071800
...SOUTHWEST VIRGINIA/EAST TENNESSEE...

CITY           SKY/WX    TMP DP  RH WIND       PRES   REMARKS
WISE*          MOSUNNY   77  64  65 SW12      30.22F
JONESVILLE*      N/A    N/A N/A N/A MISG        N/A
ABINGDON*      PTSUNNY   80  69  69 W8        30.20S
BRISTOL        MOSUNNY   83  68  60 SW14G23   30.17F
KNOXVILLE      MOSUNNY   83  71  67 SW13      30.14F
OAK RIDGE      PTSUNNY   84  71  65 VRB6      30.14F
CROSSVILLE     MOSUNNY   82  68  62 SW8G17    30.18S
NASHVILLE      PTSUNNY   86  72  62 SW9G23    30.08S HX  92
$$

...KEY TO REMARKS...
VSB - VISIBILITY IN MILES
WCI - WIND CHILL INDEX
HX  - HEAT INDEX

$$


USA.gov is the U.S. government's official web portal to all federal, state and local government web resources and services.